Wind_Speed
24 22 21 20 17 15 11 15 14 13 11 7 6 4 3 2 4 5 7 1 2 4 7 8 10 12 8 15 13 14 19 21 22 27 24 22 23 24 23 21 16 18 16
23 23 21 19 18 14 11 11 11 9 9 8 7 5 4 3 5 4 2 2 3 6 7 9 11 12 15 17 17 14 18 22 21 27 28 25 24 24 24 19 19 18 18
26 24 22 20 18 15 15 12 11 9 8 8 7 6 4 4 4 4 5 6 7 8 10 13 16 18 19 21 18 17 19 19 25 23 25 23 25 15 10 16 15 18 16
27 24 22 20 19 16 14 13 11 11 9 8 7 5 5 7 6 5 6 8 10 11 14 18 20 19 21 16 17 18 17 22 20 20 25 21 20 19 18 21 26 21 20
28 26 24 21 18 15 15 13 12 11 10 10 7 7 7 8 8 11 7 10 14 15 17 18 21 20 19 17 13 15 19 20 22 22 22 22 24 26 24 27 25 26 23
27 26 24 21 19 17 16 15 12 12 11 10 9 9 8 6 9 9 13 16 16 18 21 22 22 20 12 11 11 21 20 19 24 25 23 21 20 20 24 25 24 22 26
26 24 23 20 18 17 17 15 14 11 11 11 10 9 9 10 12 13 12 14 18 21 22 22 21 16 14 17 18 20 25 20 21 19 18 18 23 22 25 23 16 16 17
28 26 24 21 19 17 16 15 13 11 12 10 10 10 10 11 12 12 14 16 21 22 22 23 21 14 16 20 20 23 25 20 15 14 15 21 24 22 20 16 16 16 19
30 27 24 23 21 19 18 16 15 11 11 10 10 10 10 9 9 13 17 20 23 18 19 16 11 13 14 17 23 26 20 13 16 16 21 19 16 16 15 17 18 19 22
32 30 28 22 22 20 17 17 15 12 10 10 9 8 8 9 12 14 15 18 12 14 18 16 13 12 16 25 21 19 19 17 18 11 11 11 14 17 16 16 17 19 22
29 30 25 25 22 19 16 17 13 10 10 10 10 10 9 12 13 16 15 11 14 15 13 10 9 17 21 19 18 16 17 16 13 14 15 15 16 15 15 16 19 20 21
31 28 26 22 22 20 18 14 11 11 12 13 11 8 8 10 11 8 7 9 12 13 6 8 15 21 16 17 15 18 19 15 16 15 16 15 16 18 18 19 19 19 20
32 30 26 24 22 20 17 15 13 13 12 9 11 7 5 6 10 5 7 11 14 12 12 14 17 16 12 16 15 17 17 14 18 18 16 16 17 18 18 19 17 19 19
34 29 27 24 21 20 13 15 14 9 10 10 10 4 1 3 5 1 5 11 13 15 16 16 11 9 13 13 15 16 16 17 15 16 21 20 16 19 20 17 21 21 21
33 31 28 24 23 17 18 15 15 15 11 8 4 4 4 8 8 13 19 18 11 8 2 8 7 11 6 11 19 20 20 18 16 21 23 15 18 22 21 21 21 22 23
35 31 29 27 22 21 19 19 11 8 8 8 6 7 6 8 13 18 15 6 8 6 7 11 15 4 11 16 19 18 17 18 22 19 13 16 21 23 22 23 21 23 25
36 32 30 25 24 22 17 17 17 11 8 8 8 8 7 11 15 14 5 4 5 6 11 13 14 11 9 11 24 17 16 15 18 21 16 22 24 23 24 24 22 22 26
32 29 25 23 24 21 20 16 14 16 13 10 7 3 5 12 11 12 11 10 13 14 8 11 14 14 12 12 17 19 22 16 20 19 21 22 24 24 25 24 25 24 26
31 28 28 23 21 20 23 19 15 11 8 4 1 2 3 8 10 8 8 10 12 13 12 13 14 15 13 14 14 15 22 22 21 21 21 24 25 24 24 21 23 23 24
31 29 24 21 20 18 18 20 14 13 10 7 5 4 3 6 13 10 11 10 10 12 13 13 13 15 16 15 15 18 19 24 22 21 23 24 25 25 21 24 25 26 25
31 27 23 20 19 17 18 16 14 12 9 6 3 6 12 3 6 8 9 10 11 12 13 13 13 14 16 16 16 18 21 19 17 20 25 28 28 27 24 22 23 22 23
28 29 23 19 17 14 15 13 10 7 5 4 1 5 9 7 7 7 8 9 9 10 11 12 12 14 16 18 17 17 17 21 26 28 29 30 30 30 27 23 19 19 23
29 25 21 18 16 19 15 12 10 7 5 4 4 5 5 6 7 8 8 9 9 10 10 11 12 14 16 18 16 16 22 30 31 31 33 32 31 28 25 19 15 21 23
27 25 20 21 19 16 16 13 10 9 6 6 3 3 3 5 6 7 8 9 9 9 10 12 13 14 17 16 17 22 29 31 30 30 30 31 29 24 13 18 23 21 23
23 20 24 19 19 18 13 10 9 8 7 6 4 3 4 4 6 6 8 8 8 9 12 12 13 15 14 17 22 27 27 29 30 30 30 26 19 13 20 23 21 23 20
19 21 21 19 17 15 14 11 9 8 7 6 3 3 3 5 6 6 7 9 9 10 12 12 13 15 19 22 25 26 28 31 32 30 25 16 17 20 21 21 19 18 21
Wind_Direction
187 183 185 179 183 203 197 170 201 211 193 194 190 226 237 277 209 227 191 325 344 326 342 344 332 341 330 326 327 315 316 324 304 307 311 314 309 315 304 317 302 301 311
186 184 187 185 188 191 186 188 195 195 186 186 205 209 226 228 224 197 274 255 290 303 305 307 312 307 305 299 308 319 320 320 314 312 318 322 306 309 314 300 298 299 299
188 188 187 187 189 190 189 185 184 174 178 189 209 211 213 237 238 232 240 261 275 283 293 298 300 301 298 299 306 303 312 315 316 315 316 319 321 325 320 316 307 313 313
189 188 190 191 192 192 186 188 185 186 201 199 206 221 222 236 242 253 263 281 294 299 296 298 304 303 312 314 311 313 306 314 323 315 314 319 323 325 319 315 315 319 318
188 190 193 194 192 189 187 193 193 196 202 218 220 222 233 238 246 247 252 262 282 293 301 299 300 301 304 307 311 301 319 327 318 310 311 312 314 315 326 321 315 316 311
192 195 197 192 189 189 190 199 195 204 207 215 220 226 239 252 247 246 267 283 292 303 309 311 310 309 305 321 309 313 323 314 318 310 300 299 311 314 311 316 314 315 320
191 191 192 193 191 191 193 198 202 210 214 217 222 235 240 243 265 279 283 290 301 309 315 316 315 304 296 298 297 307 317 308 305 309 310 311 313 316 315 319 320 318 317
188 190 197 191 192 194 196 200 207 213 215 225 232 242 249 243 254 278 296 301 308 315 314 309 311 298 291 305 306 314 319 318 312 301 301 306 308 307 311 314 320 317 314
188 190 192 191 188 195 197 204 210 214 226 229 240 244 252 248 263 288 296 304 310 317 322 295 303 277 294 308 318 326 325 311 283 293 299 301 304 316 320 316 321 314 316
197 190 194 193 192 195 197 207 212 222 223 234 240 252 244 248 264 270 292 305 311 309 324 311 291 281 314 329 338 334 329 316 312 312 322 313 323 317 313 315 318 309 310
200 196 193 192 186 197 199 211 221 225 222 244 223 243 257 259 272 309 289 316 319 324 318 305 329 335 340 348 340 348 348 336 336 335 325 323 321 328 314 311 310 309 307
194 197 189 194 186 194 205 211 220 208 231 216 226 216 254 265 273 302 325 330 337 342 3 297 319 323 329 333 329 342 332 326 329 329 323 333 326 326 324 322 314 310 315
187 190 188 190 183 196 200 205 202 218 208 226 241 251 251 313 308 302 337 333 331 323 324 292 311 301 317 320 333 341 347 340 325 347 335 329 327 326 328 331 334 333 320
186 188 185 183 187 194 191 201 193 209 199 234 232 301 2 312 185 199 311 314 307 300 294 300 303 307 308 336 346 334 321 323 325 325 327 317 331 331 332 335 331 341 331
183 183 181 179 188 177 183 191 211 201 182 160 192 161 120 200 270 304 318 327 344 353 337 342 299 315 347 328 324 330 323 335 338 324 323 328 328 324 331 345 344 340 337
181 180 177 178 183 185 195 183 169 178 198 228 254 278 275 313 327 328 330 43 48 16 358 353 352 309 329 341 343 328 325 333 338 338 350 334 323 324 329 331 332 326 336
185 177 180 179 185 185 191 208 214 214 221 233 252 262 299 339 354 9 61 40 348 350 359 351 347 337 332 332 338 335 332 325 322 345 335 328 331 330 331 330 330 325 334
176 179 178 177 185 185 187 188 200 206 215 227 222 258 354 10 21 35 38 17 2 347 335 346 347 343 337 331 340 339 342 346 337 335 334 333 331 325 324 327 325 328 330
179 176 180 183 185 188 190 181 193 172 180 191 247 21 334 350 348 353 358 348 354 349 348 344 341 336 336 334 334 333 335 331 332 332 333 329 331 330 324 320 320 324 327
177 175 177 179 184 188 180 173 172 178 175 184 164 100 267 327 320 331 357 2 346 346 345 341 336 332 338 337 334 331 332 338 338 333 324 319 321 324 325 323 324 323 325
170 173 172 177 178 187 163 147 160 147 153 152 174 348 2 74 15 354 352 349 346 343 340 337 334 334 336 334 331 332 331 335 329 313 313 319 324 327 324 317 318 317 323
170 166 170 175 180 169 152 154 153 147 157 178 209 15 31 37 2 2 352 347 345 341 337 337 336 337 334 333 333 335 327 310 316 321 324 325 326 325 323 317 318 327 321
159 163 169 166 176 147 144 146 141 143 141 103 72 44 29 6 6 358 356 345 347 346 345 341 340 335 333 336 337 311 311 322 325 325 323 323 323 323 324 329 339 329 322
157 161 163 141 139 143 140 142 143 128 102 105 82 36 16 15 10 358 357 348 352 353 343 344 340 336 341 328 310 317 323 325 326 326 324 322 323 325 335 343 338 320 315
159 160 140 142 143 141 139 136 127 125 114 97 85 47 29 24 11 1 2 352 357 351 347 346 342 341 336 314 320 328 335 336 335 334 331 330 333 355 350 331 316 316 313
149 135 135 141 134 137 137 130 127 124 110 100 90 61 45 28 30 349 12 354 357 354 348 348 340 338 319 325 334 339 341 345 344 342 339 340 352 351 328 324 327 312 325
Height
1506 1508 1511 1515 1519 1522 1526 1529 1531 1532 1534 1535 1537 1538 1539 1539 1539 1540 1540 1540 1539 1538 1537 1537 1536 1534 1532 1531 1529 1527 1525 1523 1520 1516 1514 1511 1507 1505 1501 1499 1497 1496 1494
1507 1507 1510 1513 1517 1520 1523 1526 1528 1530 1532 1534 1536 1537 1538 1538 1538 1539 1540 1540 1538 1537 1537 1536 1534 1533 1530 1528 1526 1524 1523 1520 1517 1512 1509 1506 1504 1500 1498 1495 1493 1492 1489
1507 1508 1509 1512 1515 1518 1522 1525 1527 1529 1532 1534 1535 1536 1537 1537 1538 1538 1539 1538 1537 1535 1535 1533 1531 1530 1527 1524 1523 1520 1519 1516 1513 1509 1505 1503 1500 1497 1495 1493 1491 1488 1486
1506 1507 1509 1511 1513 1517 1521 1524 1527 1529 1531 1532 1533 1535 1535 1536 1536 1536 1536 1535 1534 1533 1532 1530 1528 1525 1523 1520 1519 1517 1515 1512 1509 1506 1502 1500 1497 1494 1491 1488 1485 1483 1480
1500 1504 1507 1509 1512 1516 1520 1523 1526 1528 1529 1531 1531 1532 1533 1534 1534 1533 1534 1532 1530 1529 1527 1526 1524 1521 1519 1516 1514 1512 1510 1508 1505 1502 1499 1496 1492 1489 1487 1484 1481 1478 1475
1498 1503 1506 1507 1510 1515 1520 1523 1525 1527 1527 1529 1529 1530 1531 1531 1530 1531 1531 1529 1527 1525 1522 1521 1520 1516 1514 1512 1511 1508 1506 1504 1501 1497 1495 1492 1489 1487 1483 1480 1477 1474 1470
1496 1501 1504 1508 1512 1515 1519 1521 1523 1525 1526 1527 1528 1528 1528 1529 1529 1528 1528 1526 1524 1521 1518 1517 1515 1513 1511 1509 1506 1505 1502 1500 1496 1493 1490 1488 1485 1483 1480 1476 1474 1472 1469
1490 1495 1500 1505 1510 1514 1517 1520 1521 1523 1524 1525 1525 1525 1525 1526 1526 1526 1525 1524 1521 1518 1515 1513 1511 1506 1507 1504 1502 1500 1497 1494 1492 1489 1487 1485 1482 1479 1477 1474 1471 1469 1466
1484 1491 1496 1500 1506 1511 1514 1517 1520 1521 1522 1523 1523 1523 1523 1523 1525 1524 1523 1521 1518 1516 1513 1510 1509 1504 1502 1500 1499 1495 1491 1490 1487 1485 1483 1481 1478 1476 1473 1470 1468 1466 1462
1482 1488 1492 1497 1504 1507 1511 1515 1517 1518 1519 1521 1521 1521 1522 1521 1521 1521 1520 1518 1516 1514 1509 1507 1505 1503 1501 1498 1495 1491 1488 1485 1482 1480 1479 1477 1475 1473 1470 1468 1465 1462 1459
1482 1490 1489 1494 1501 1506 1510 1513 1515 1516 1518 1518 1518 1519 1520 1519 1518 1518 1517 1515 1513 1510 1508 1504 1503 1501 1499 1496 1493 1490 1487 1484 1481 1479 1477 1475 1473 1470 1468 1465 1462 1459 1456
1479 1486 1489 1497 1501 1503 1507 1510 1513 1515 1515 1516 1515 1515 1516 1516 1516 1515 1514 1513 1510 1507 1506 1504 1500 1499 1497 1495 1492 1489 1486 1483 1480 1478 1475 1473 1470 1468 1464 1462 1459 1457 1453
1476 1483 1488 1495 1499 1500 1505 1509 1511 1512 1513 1513 1514 1514 1513 1513 1513 1512 1509 1509 1508 1506 1504 1502 1500 1497 1496 1493 1490 1487 1484 1482 1479 1475 1472 1470 1468 1465 1462 1459 1456 1453 1449
1473 1479 1487 1492 1496 1499 1504 1507 1509 1510 1510 1511 1513 1512 1512 1511 1511 1511 1509 1505 1503 1502 1499 1497 1496 1495 1494 1492 1489 1487 1484 1481 1477 1474 1471 1468 1465 1462 1458 1456 1453 1450 1446
1470 1478 1484 1489 1495 1500 1502 1504 1506 1507 1508 1509 1509 1511 1510 1510 1510 1507 1505 1503 1500 1498 1497 1496 1494 1493 1492 1491 1487 1484 1482 1478 1475 1472 1468 1465 1463 1460 1455 1453 1450 1447 1443
1466 1475 1481 1486 1494 1497 1500 1501 1503 1505 1506 1507 1508 1509 1508 1507 1507 1504 1502 1501 1500 1499 1497 1496 1494 1493 1490 1488 1485 1482 1480 1477 1474 1469 1466 1465 1461 1457 1453 1450 1448 1444 1440
1468 1473 1478 1486 1491 1494 1498 1500 1502 1504 1505 1506 1506 1507 1507 1506 1505 1502 1500 1500 1499 1498 1497 1495 1494 1490 1489 1487 1484 1480 1478 1475 1473 1469 1466 1463 1459 1455 1452 1448 1445 1441 1437
1467 1473 1477 1484 1489 1493 1496 1498 1499 1501 1502 1503 1505 1505 1505 1505 1504 1503 1501 1500 1498 1496 1495 1494 1493 1490 1487 1485 1482 1479 1477 1473 1471 1468 1464 1461 1457 1453 1448 1445 1442 1438 1435
1466 1471 1477 1483 1487 1490 1493 1496 1498 1500 1501 1501 1503 1503 1503 1504 1503 1502 1499 1499 1498 1497 1496 1494 1492 1491 1487 1484 1481 1478 1475 1473 1469 1465 1462 1458 1454 1449 1445 1441 1438 1435 1432
1464 1470 1477 1481 1485 1488 1491 1494 1497 1499 1500 1501 1502 1502 1502 1502 1500 1499 1498 1498 1498 1497 1495 1493 1492 1490 1487 1484 1481 1477 1473 1470 1466 1463 1459 1455 1450 1446 1442 1438 1435 1431 1428
1463 1470 1476 1481 1485 1487 1489 1493 1495 1498 1501 1501 1500 1502 1502 1500 1501 1500 1499 1498 1497 1496 1495 1492 1491 1489 1486 1482 1479 1476 1473 1469 1465 1460 1455 1451 1446 1441 1437 1434 1431 1427 1425
1463 1470 1475 1481 1484 1487 1489 1493 1496 1497 1500 1501 1499 1501 1502 1501 1501 1499 1499 1498 1497 1495 1494 1492 1490 1488 1484 1480 1478 1474 1470 1464 1460 1456 1450 1445 1440 1436 1432 1428 1425 1423 1421
1463 1469 1474 1480 1484 1486 1491 1494 1495 1497 1499 1500 1501 1502 1503 1502 1501 1499 1499 1497 1496 1494 1493 1491 1489 1486 1483 1480 1477 1471 1466 1462 1456 1450 1444 1439 1434 1430 1427 1423 1421 1418 1417
1464 1467 1473 1476 1482 1487 1490 1493 1495 1497 1499 1500 1502 1503 1503 1502 1501 1499 1499 1497 1495 1494 1492 1490 1487 1485 1482 1477 1472 1469 1464 1457 1451 1445 1439 1434 1428 1425 1423 1421 1417 1417 1412
1464 1469 1472 1478 1481 1486 1491 1495 1496 1498 1500 1500 1502 1504 1503 1500 1500 1499 1498 1496 1495 1493 1491 1489 1486 1483 1480 1474 1470 1465 1459 1453 1446 1439 1433 1428 1424 1421 1419 1418 1415 1411 1407
1466 1470 1476 1480 1482 1488 1491 1494 1497 1499 1501 1502 1503 1503 1502 1500 1500 1498 1498 1496 1494 1492 1490 1488 1485 1482 1476 1472 1467 1461 1455 1449 1442 1435 1429 1425 1421 1418 1418 1414 1411 1406 1404